Accueil
METAR-TAF:

METAR-TAF

Aéroports :

P11-b, Pays-Bas

Plate-forme pétrolière

latitude: 52-21-36N, longitude: 3-20-30E, altitude: 24 m

Observation

Le bulletin a été fait il y a 28 minutes, à 09:25 UTC
Vent 25 kt de sud/sud-ouest, variant entre sud/sud-est et ouest
Température 18°C
Humidité 88%
Pression 1011 hPa
Visibilité 10 km ou plus
Quelques nuages à une hauteur de 700 ft
Nuages épars à une hauteur de 900 ft
Nuages fragmentés à une hauteur de 1300 ft
pluie faible

METAR: EHPG 170925Z AUTO 20025KT 150V260 9999 -RA FEW007 SCT009 BKN013 18/16 Q1011

Heure: 11:53 (09:53 UTC)


TAF: absent

Observations et prévisions météorologiques de plus de 4000 aéroports (messages METAR et TAF).

Les stations disponibles sont représentées par des disques jaunes et rouges sur la carte.

Passer la souris dessus pour voir le nom de la station.

Cliquer dessus pour voir les observations et prévisions météorologiques.

Pour changer de carte: cliquez sur les boutons verts avec une croix noire pour zoomer, sur le bouton vert avec un tiret pour effectuer un zoom arrière, ou sur les flèches vertes pour les cartes adjacentes.


METAR-TAF: